• In Deutschland
  • Länderverzeichnis
  • Für 7 Tage
  • Wassertemperatur
  • Satellitenkarten
  • Wetterkarte
  • Widgets
  • user-avatar
    Anmelden

    Stündliche Wetter Stadthagen

    Heute, 19 Januar, Freitag

    Zeit Temperatur Niederschläge Wind Luftdruck Luftfeuchtigkeit
    00:00 -1°C° 0 mm 4 m/S 742 mmHg 91%
    01:00 -1°C° 0 mm 4 m/S 743 mmHg 92%
    02:00 -1°C° 0 mm 3 m/S 743 mmHg 93%
    03:00 -1°C° 0 mm 3 m/S 743 mmHg 93%
    04:00 -1°C° 0 mm 3 m/S 743 mmHg 94%
    05:00 -1°C° 0 mm 3 m/S 743 mmHg 94%
    06:00 -1°C° 0 mm 2 m/S 744 mmHg 95%
    07:00 -1°C° 0 mm 2 m/S 744 mmHg 95%
    08:00 0°C° 0,3 mm 3 m/S 744 mmHg 94%
    09:00 0°C° 0,3 mm 3 m/S 745 mmHg 94%
    10:00 +1°C° 0,3 mm 3 m/S 745 mmHg 93%
    11:00 0°C° 0,3 mm 4 m/S 746 mmHg 91%
    12:00 +1°C° 0,3 mm 5 m/S 746 mmHg 88%
    13:00 +2°C° 0,3 mm 6 m/S 746 mmHg 85%
    14:00 +1°C° 0,2 mm 5 m/S 746 mmHg 84%
    15:00 +1°C° 0,2 mm 5 m/S 747 mmHg 83%
    16:00 +1°C° 0,2 mm 5 m/S 747 mmHg 82%
    17:00 +1°C° 0,1 mm 5 m/S 747 mmHg 83%
    18:00 0°C° 0,1 mm 5 m/S 747 mmHg 83%
    19:00 0°C° 0,1 mm 4 m/S 747 mmHg 84%
    20:00 0°C° 0,1 mm 4 m/S 747 mmHg 84%
    21:00 -1°C° 0,1 mm 4 m/S 747 mmHg 84%
    22:00 -1°C° 0,1 mm 4 m/S 747 mmHg 85%
    23:00 -1°C° 0 mm 4 m/S 747 mmHg 85%

    Morgen, 20 Januar, Samstag

    Zeit Temperatur Niederschläge Wind Luftdruck Luftfeuchtigkeit
    00:00 -1°C° 0 mm 4 m/S 747 mmHg 86%
    01:00 -1°C° 0 mm 4 m/S 747 mmHg 87%
    02:00 -1°C° 0 mm 4 m/S 747 mmHg 87%
    03:00 -2°C° 0 mm 5 m/S 747 mmHg 88%
    04:00 -2°C° 0 mm 5 m/S 747 mmHg 88%
    05:00 -2°C° 0 mm 5 m/S 747 mmHg 89%
    06:00 -2°C° 0 mm 5 m/S 747 mmHg 89%
    07:00 -2°C° 0 mm 5 m/S 747 mmHg 90%
    08:00 -2°C° 0 mm 5 m/S 747 mmHg 89%
    09:00 -2°C° 0 mm 5 m/S 747 mmHg 87%
    10:00 -1°C° 0 mm 5 m/S 747 mmHg 86%
    11:00 -1°C° 0 mm 4 m/S 746 mmHg 85%
    12:00 0°C° 0 mm 4 m/S 746 mmHg 84%
    13:00 0°C° 0 mm 4 m/S 745 mmHg 82%
    14:00 +1°C° 0 mm 3 m/S 745 mmHg 85%
    15:00 +2°C° 0 mm 2 m/S 745 mmHg 87%
    16:00 +2°C° 0 mm 2 m/S 744 mmHg 89%
    17:00 +1°C° 0,1 mm 2 m/S 745 mmHg 90%
    18:00 +1°C° 0,1 mm 2 m/S 745 mmHg 91%
    19:00 -1°C° 0,1 mm 2 m/S 745 mmHg 92%
    20:00 -1°C° 0,1 mm 2 m/S 746 mmHg 93%
    21:00 -1°C° 0,1 mm 2 m/S 746 mmHg 93%
    22:00 -1°C° 0,1 mm 2 m/S 747 mmHg 93%
    23:00 -1°C° 0 mm 3 m/S 747 mmHg 93%

    übermorgen, 21 Januar, Sonntag

    Zeit Temperatur Niederschläge Wind Luftdruck Luftfeuchtigkeit
    00:00 -2°C° 0 mm 3 m/S 748 mmHg 93%
    01:00 -2°C° 0 mm 3 m/S 749 mmHg 93%
    02:00 -2°C° 0 mm 3 m/S 749 mmHg 93%
    03:00 -2°C° 0 mm 3 m/S 750 mmHg 93%
    04:00 -2°C° 0 mm 3 m/S 750 mmHg 93%
    05:00 -4°C° 0 mm 3 m/S 751 mmHg 93%
    06:00 -3°C° 0 mm 2 m/S 752 mmHg 94%
    07:00 -3°C° 0 mm 2 m/S 752 mmHg 94%
    08:00 -2°C° 0 mm 2 m/S 753 mmHg 93%
    09:00 -2°C° 0 mm 2 m/S 753 mmHg 92%
    10:00 -2°C° 0 mm 2 m/S 754 mmHg 92%
    11:00 -1°C° 0 mm 2 m/S 754 mmHg 90%
    12:00 +1°C° 0 mm 2 m/S 754 mmHg 89%
    13:00 +2°C° 0 mm 2 m/S 754 mmHg 87%
    14:00 +1°C° 0 mm 2 m/S 754 mmHg 89%
    15:00 +1°C° 0 mm 2 m/S 754 mmHg 90%
    16:00 +1°C° 0 mm 2 m/S 754 mmHg 91%
    17:00 +1°C° 0 mm 2 m/S 754 mmHg 91%
    18:00 -1°C° 0 mm 2 m/S 754 mmHg 91%
    19:00 -1°C° 0 mm 2 m/S 754 mmHg 92%
    20:00 -1°C° 0 mm 3 m/S 754 mmHg 91%
    21:00 -1°C° 0 mm 3 m/S 753 mmHg 90%
    22:00 -1°C° 0 mm 3 m/S 753 mmHg 90%
    23:00 -1°C° 0 mm 3 m/S 753 mmHg 88%

    22 Januar, Montag

    Zeit Temperatur Niederschläge Wind Luftdruck Luftfeuchtigkeit
    00:00 -2°C° 0 mm 4 m/S 752 mmHg 85%
    01:00 -2°C° 0 mm 4 m/S 752 mmHg 83%
    02:00 -1°C° 0,5 mm 4 m/S 751 mmHg 84%
    03:00 -1°C° 0,5 mm 4 m/S 751 mmHg 86%
    04:00 -1°C° 0,5 mm 4 m/S 751 mmHg 87%
    05:00 0°C° 0,2 mm 3 m/S 751 mmHg 89%
    06:00 0°C° 0,2 mm 3 m/S 750 mmHg 91%
    07:00 +1°C° 0,2 mm 3 m/S 750 mmHg 93%
    08:00 +1°C° 0,1 mm 3 m/S 750 mmHg 94%
    09:00 +1°C° 0,1 mm 3 m/S 751 mmHg 95%
    10:00 +3°C° 0,1 mm 2 m/S 751 mmHg 95%
    11:00 +3°C° 0 mm 3 m/S 750 mmHg 96%
    12:00 +4°C° 0 mm 3 m/S 750 mmHg 97%
    13:00 +5°C° 0 mm 3 m/S 750 mmHg 97%
    14:00 +5°C° 1,4 mm 3 m/S 749 mmHg 97%
    15:00 +5°C° 1,4 mm 4 m/S 749 mmHg 97%
    16:00 +5°C° 1,4 mm 4 m/S 748 mmHg 97%
    17:00 +6°C° 0,6 mm 5 m/S 748 mmHg 95%
    18:00 +7°C° 0,6 mm 6 m/S 747 mmHg 94%
    19:00 +8°C° 0,6 mm 7 m/S 747 mmHg 92%
    20:00 +8°C° 0,2 mm 7 m/S 747 mmHg 90%
    21:00 +7°C° 0,2 mm 8 m/S 747 mmHg 88%
    22:00 +8°C° 0,2 mm 9 m/S 746 mmHg 85%
    23:00 +7°C° 0,1 mm 9 m/S 747 mmHg 83%

    23 Januar, Dienstag

    Zeit Temperatur Niederschläge Wind Luftdruck Luftfeuchtigkeit
    00:00 +6°C° 0,1 mm 10 m/S 747 mmHg 81%
    01:00 +6°C° 0,1 mm 10 m/S 748 mmHg 79%
    02:00 +5°C° 0 mm 10 m/S 748 mmHg 79%
    03:00 +5°C° 0 mm 9 m/S 749 mmHg 80%
    04:00 +4°C° 0 mm 8 m/S 750 mmHg 80%
    05:00 +5°C° 0,2 mm 8 m/S 750 mmHg 82%
    06:00 +5°C° 0,2 mm 7 m/S 751 mmHg 83%
    07:00 +5°C° 0,2 mm 7 m/S 751 mmHg 85%
    08:00 +5°C° 0,3 mm 7 m/S 751 mmHg 87%
    09:00 +5°C° 0,3 mm 7 m/S 752 mmHg 88%
    10:00 +7°C° 0,3 mm 6 m/S 752 mmHg 90%
    11:00 +6°C° 0,2 mm 7 m/S 753 mmHg 87%
    12:00 +8°C° 0,2 mm 7 m/S 753 mmHg 84%
    13:00 +7°C° 0,2 mm 8 m/S 754 mmHg 81%
    14:00 +8°C° 0 mm 7 m/S 755 mmHg 79%
    15:00 +6°C° 0 mm 7 m/S 755 mmHg 77%
    16:00 +7°C° 0 mm 6 m/S 756 mmHg 75%
    17:00 +6°C° 0 mm 5 m/S 757 mmHg 79%
    18:00 +5°C° 0 mm 4 m/S 758 mmHg 83%
    19:00 +5°C° 0 mm 4 m/S 759 mmHg 87%
    20:00 +4°C° 0 mm 3 m/S 759 mmHg 89%
    21:00 +4°C° 0 mm 3 m/S 760 mmHg 90%
    22:00 +4°C° 0 mm 3 m/S 760 mmHg 92%
    23:00 +4°C° 0 mm 3 m/S 760 mmHg 92%

    24 Januar, Mittwoch

    Zeit Temperatur Niederschläge Wind Luftdruck Luftfeuchtigkeit
    00:00 +3°C° 0 mm 3 m/S 761 mmHg 93%
    01:00 +3°C° 0 mm 3 m/S 761 mmHg 93%
    02:00 +4°C° 0 mm 3 m/S 761 mmHg 94%
    03:00 +4°C° 0 mm 3 m/S 761 mmHg 95%
    04:00 +4°C° 0 mm 3 m/S 761 mmHg 96%
    05:00 +5°C° 0 mm 3 m/S 760 mmHg 95%
    06:00 +5°C° 0 mm 3 m/S 760 mmHg 95%
    07:00 +7°C° 0 mm 3 m/S 760 mmHg 95%
    08:00 +7°C° 0 mm 3 m/S 760 mmHg 94%
    09:00 +7°C° 0 mm 3 m/S 760 mmHg 93%
    10:00 +6°C° 0 mm 4 m/S 761 mmHg 92%
    11:00 +7°C° 0 mm 4 m/S 760 mmHg 89%
    12:00 +8°C° 0 mm 4 m/S 760 mmHg 87%
    13:00 +10°C° 0 mm 4 m/S 760 mmHg 84%
    14:00 +10°C° 0 mm 4 m/S 760 mmHg 85%
    15:00 +9°C° 0 mm 3 m/S 760 mmHg 86%
    16:00 +9°C° 0 mm 3 m/S 759 mmHg 87%
    17:00 +9°C° 0 mm 3 m/S 759 mmHg 88%
    18:00 +8°C° 0 mm 3 m/S 759 mmHg 89%
    19:00 +7°C° 0 mm 3 m/S 759 mmHg 91%
    20:00 +7°C° 0 mm 3 m/S 759 mmHg 91%
    21:00 +7°C° 0 mm 3 m/S 758 mmHg 91%
    22:00 +5°C° 0 mm 3 m/S 758 mmHg 91%
    23:00 +5°C° 0 mm 3 m/S 758 mmHg 91%
    Mehr zeigen